Christchurch, New Zealand

7:48 PM NZST on June 23, 2017 (GMT +1200)
Christchurch International

Weather History for NZCH - May, 2013

Change the Weather History Date:

Saturday, May 18, 2013

  Actual Average Record
Temperature  
Mean Temperature 53 °F -  
Max Temperature 55 °F 53 °F 68 °F (2001)
Min Temperature 51 °F 35 °F 32 °F (1998)
Degree Days  
Heating Degree Days 12    
Growing Degree Days 3 (Base 50)    
Moisture  
Dew Point 51 °F    
Average Humidity 93    
Maximum Humidity 100    
Minimum Humidity 88    
Precipitation  
Precipitation 0.00 in - - ()
Sea Level Pressure  
Sea Level Pressure 29.57 in    
Wind  
Wind Speed 10 mph ()    
Max Wind Speed 15 mph    
Max Gust Speed -    
Visibility 5.8 miles    
Events Rain    
Averages and records for this station are not official NWS values.
T = Trace of Precipitation, MM = Missing Value Source: Averaged Metar Reports

Daily Weather History Graph

Daily Weather History Graph

Search for Another Location

Airport or City:

Trip Planner

Search our weather history database for the weather conditions in past years. The results will help you decide how hot, cold, wet, or windy it might be!

Date:

Astronomy

May. 18, 2013 Rise Set
Actual Time 7:39 AM NZST 5:12 PM NZST
Civil Twilight 7:08 AM NZST 5:43 PM NZST
Nautical Twilight 6:33 AM NZST 6:18 PM NZST
Astronomical Twilight 5:59 AM NZST 6:52 PM NZST
Moon 1:01 PM NZST (5/18) No Moon Set
Length of Visible Light 10h 35m
Length of Day
9h 32m
Waxing Crescent, 48% of the Moon is Illuminated
May 18
Waxing Crescent
May 18
First Quarter
May 25
Full
Jun 1
Last Quarter
Jun 9
New

Hourly Weather History & Observations

Time (NZST) Temp. Dew Point Humidity Pressure Visibility Wind Dir Wind Speed Gust Speed Precip Events Conditions
12:00 AM 51.8 °F 50.0 °F 94% 29.68 in 6.2 mi WSW 12.7 mph - N/A   Light Drizzle
1:00 AM 51.8 °F 50.0 °F 94% 29.68 in 6.2 mi WSW 12.7 mph - N/A   Light Drizzle
2:00 AM 51.8 °F 50.0 °F 94% 29.68 in 6.2 mi WSW 11.5 mph - N/A Rain Rain
3:00 AM 51.8 °F 50.0 °F 94% 29.65 in 6.2 mi WSW 9.2 mph - N/A Rain Rain
4:00 AM 51.8 °F 50.0 °F 94% 29.65 in 6.2 mi WSW 11.5 mph - N/A Rain Rain
5:00 AM 51.8 °F 50.0 °F 94% 29.62 in 6.2 mi WSW 11.5 mph - N/A Rain Rain
6:00 AM 51.8 °F 51.8 °F 100% 29.62 in 6.2 mi WSW 9.2 mph - N/A Rain Rain
7:00 AM 51.8 °F 51.8 °F 100% 29.59 in 6.2 mi WSW 11.5 mph - N/A   Mostly Cloudy
8:00 AM 51.8 °F 50.0 °F 94% 29.59 in 6.2 mi West 9.2 mph - N/A Rain Rain
9:00 AM 51.8 °F 50.0 °F 94% 29.62 in 6.2 mi West 9.2 mph - N/A Rain Light Rain
10:00 AM 51.8 °F 51.8 °F 100% 29.59 in 6.2 mi West 10.4 mph - N/A Rain Light Rain
11:00 AM 53.6 °F 51.8 °F 94% 29.59 in 6.2 mi West 10.4 mph - N/A Rain Light Rain
12:00 PM 53.6 °F 51.8 °F 94% 29.56 in 6.2 mi WSW 12.7 mph - N/A Rain Light Rain
1:00 PM 53.6 °F 51.8 °F 94% 29.53 in 6.2 mi WSW 10.4 mph - N/A Rain Light Rain Showers
2:00 PM 55.4 °F 51.8 °F 88% 29.53 in 6.2 mi WSW 15.0 mph - N/A   Mostly Cloudy
3:00 PM 53.6 °F 51.8 °F 94% 29.50 in 6.2 mi WSW 15.0 mph - N/A   Mostly Cloudy
4:00 PM 55.4 °F 51.8 °F 88% 29.50 in 6.2 mi WSW 13.8 mph - N/A   Mostly Cloudy
5:00 PM 53.6 °F 50.0 °F 88% 29.50 in 6.2 mi WSW 15.0 mph - N/A   Mostly Cloudy
6:00 PM 53.6 °F 50.0 °F 88% 29.50 in 6.2 mi WSW 11.5 mph - N/A   Light Drizzle
7:00 PM 53.6 °F 50.0 °F 88% 29.50 in 6.2 mi WSW 11.5 mph - N/A   Light Drizzle
8:00 PM 51.8 °F 50.0 °F 94% 29.50 in 6.2 mi WSW 10.4 mph - N/A   Light Drizzle
9:00 PM 51.8 °F 50.0 °F 94% 29.50 in 2.5 mi WSW 8.1 mph - N/A Rain Light Rain
10:00 PM 51.8 °F 50.0 °F 94% 29.50 in 2.5 mi WSW 8.1 mph - N/A Rain Light Rain
11:00 PM 51.8 °F 50.0 °F 94% 29.50 in 3.7 mi WSW 8.1 mph - N/A Rain Light Rain